Location: El Chorro
(10.0985°N, 67.3542°W)
Time: 18:22:42
(UTC+00:00)

Cosmos 1634 Rocket - Pass Details

Date: 15 November 2025
Orbit: 958 x 992 km, 82.9° (Epoch: 06 December)

Event Time Altitude Azimuth Distance (km) Brightness Sun altitude
Rises 23:13:51 0° 174° (S) 3,698 7.2 -17.2°
Reaches altitude 10° 23:16:25 10° 170° (S) 2,748 6.4 -17.9°
Maximum altitude 23:22:36 58° 92° (E) 1,139 4.0 -19.3°
Enters shadow 23:28:10 13° 16° (NNE) 2,526 5.9 -20.6°
